Weather History for KUTA - December, 2012

Change the Weather History Date:

Friday, December 14, 2012

  Actual Average (KMEM) Record (KMEM)
Temperature  
Mean Temperature 44 °F 44 °F  
Max Temperature 57 °F 52 °F 77 °F (1984)
Min Temperature 32 °F 35 °F 9 °F (1917)
Degree Days  
Heating Degree Days 20 21  
Month to date heating degree days 277  
Since 1 July heating degree days 776  
Cooling Degree Days 0 0  
Month to date cooling degree days 0  
Year to date cooling degree days 2256  
Moisture  
Dew Point 37 °F    
Average Humidity 75    
Maximum Humidity 100    
Minimum Humidity 48    
Precipitation  
Precipitation 0.08 in 0.20 in 1.34 in (1951)
Month to date precipitation 2.77  
Year to date precipitation 50.71  
Snow  
Snow 0.00 in 0.00 in 3.60 in (1901)
Month to date snowfall 0.0  
Since 1 July snowfall T  
Snow Depth -    
Sea Level Pressure  
Sea Level Pressure 30.22 in    
Wind  
Wind Speed 3 mph (SSE)    
Max Wind Speed 12 mph    
Max Gust Speed -    
Visibility 9 miles    
Events Rain    
T = Trace of Precipitation, MM = Missing Value Source: NWS Daily Summary

Daily Weather History Graph

Daily Weather History Graph

Search for Another Location

Airport or City:

Trip Planner

Search our weather history database for the weather conditions in past years. The results will help you decide how hot, cold, wet, or windy it might be!

Date:

Astronomy

Dec. 14, 2012 Rise Set
Actual Time 7:00 AM CST 4:51 PM CST
Civil Twilight 6:32 AM CST 5:19 PM CST
Nautical Twilight 6:01 AM CST 5:51 PM CST
Astronomical Twilight 5:30 AM CST 6:22 PM CST
Moon 8:07 AM CST (12/14) 6:41 PM CST (12/14)
Length of Visible Light 10h 47m
Length of Day
9h 50m
Waxing Crescent, 3% of the Moon is Illuminated
Dec 14
Waxing Crescent
Dec 19
First Quarter
Dec 28
Full
Jan 4
Last Quarter
Jan 11
New

Hourly Weather History & Observations

Time (CST) Temp. Windchill Dew Point Humidity Pressure Visibility Wind Dir Wind Speed Gust Speed Precip Events Conditions
12:15 AM 33.8 °F - 32.0 °F 93% 30.31 in 10.0 mi Calm Calm - N/A   Clear
12:35 AM 33.8 °F - 32.0 °F 93% 30.28 in 4.0 mi Calm Calm - N/A   Clear
12:55 AM 33.8 °F - 32.0 °F 93% 30.28 in 10.0 mi Calm Calm - N/A   Clear
1:15 AM 33.8 °F - 32.0 °F 93% 30.29 in 10.0 mi Calm Calm - N/A   Clear
1:35 AM 33.8 °F - 32.0 °F 93% 30.29 in 3.0 mi Calm Calm - N/A   Clear
1:55 AM 32.0 °F - 32.0 °F 100% 30.31 in 10.0 mi Calm Calm - N/A   Clear
2:15 AM 32.0 °F 27.5 °F 30.2 °F 93% 30.30 in 7.0 mi SSE 4.6 mph - N/A   Clear
2:35 AM 32.0 °F - 32.0 °F 100% 30.29 in 4.0 mi Calm Calm - N/A   Clear
2:55 AM 33.8 °F - 32.0 °F 93% 30.29 in 7.0 mi Calm Calm - N/A   Clear
3:15 AM 32.0 °F - 30.2 °F 93% 30.29 in 7.0 mi Calm Calm - N/A   Clear
3:55 AM 32.0 °F - 32.0 °F 100% 30.30 in 10.0 mi Calm Calm - N/A   Clear
4:15 AM 32.0 °F - 30.2 °F 93% 30.30 in 7.0 mi Calm Calm - N/A   Clear
4:35 AM 32.0 °F 28.7 °F 30.2 °F 93% 30.29 in 7.0 mi SSE 3.5 mph - N/A   Clear
4:55 AM 32.0 °F 27.5 °F 30.2 °F 93% 30.29 in 7.0 mi SSE 4.6 mph - N/A   Clear
5:15 AM 33.8 °F 27.7 °F 30.2 °F 87% 30.28 in 5.0 mi SSE 6.9 mph - N/A   Haze
5:35 AM 32.0 °F 27.5 °F 30.2 °F 93% 30.28 in 7.0 mi SE 4.6 mph - N/A   Clear
5:55 AM 33.8 °F 28.6 °F 30.2 °F 87% 30.28 in 10.0 mi SSE 5.8 mph - N/A   Clear
6:15 AM 32.0 °F - 30.2 °F 93% 30.29 in 10.0 mi Calm Calm - N/A   Clear
6:35 AM 33.8 °F 29.6 °F 32.0 °F 93% 30.29 in 10.0 mi SSE 4.6 mph - N/A   Clear
6:55 AM 33.8 °F 30.8 °F 30.2 °F 87% 30.30 in 10.0 mi SSE 3.5 mph - N/A   Clear
7:15 AM 32.0 °F 27.5 °F 28.4 °F 87% 30.30 in 10.0 mi SSE 4.6 mph - N/A   Clear
7:35 AM 33.8 °F 29.6 °F 28.4 °F 81% 30.29 in 10.0 mi SSE 4.6 mph - N/A   Clear
7:55 AM 35.6 °F 32.8 °F 30.2 °F 81% 30.30 in 10.0 mi South 3.5 mph - N/A   Clear
8:15 AM 37.4 °F - 32.0 °F 81% 30.31 in 10.0 mi Calm Calm - N/A   Clear
8:35 AM 41.0 °F - 32.0 °F 70% 30.31 in 10.0 mi Calm Calm - N/A   Clear
8:55 AM 42.8 °F - 32.0 °F 66% 30.31 in 10.0 mi Calm Calm - N/A   Clear
9:15 AM 44.6 °F 41.4 °F 33.8 °F 66% 30.32 in 10.0 mi South 5.8 mph - N/A   Clear
9:35 AM 46.4 °F 42.9 °F 33.8 °F 62% 30.32 in 10.0 mi SSE 6.9 mph - N/A   Clear
9:55 AM 48.2 °F - 35.6 °F 62% 30.32 in 10.0 mi South 5.8 mph - N/A   Clear
10:15 AM 50.0 °F - 35.6 °F 58% 30.31 in 10.0 mi South 5.8 mph - N/A   Clear
10:35 AM 50.0 °F - 35.6 °F 58% 30.30 in 10.0 mi South 5.8 mph - N/A   Clear
10:55 AM 51.8 °F - 37.4 °F 58% 30.30 in 10.0 mi South 6.9 mph - N/A   Clear
11:15 AM 51.8 °F - 37.4 °F 58% 30.29 in 10.0 mi South 6.9 mph - N/A   Clear
11:35 AM 53.6 °F - 37.4 °F 54% 30.28 in 10.0 mi South 8.1 mph - N/A   Clear
11:55 AM 53.6 °F - 39.2 °F 58% 30.27 in 10.0 mi SSE 8.1 mph - N/A   Clear
12:15 PM 55.4 °F - 37.4 °F 51% 30.26 in 10.0 mi South 6.9 mph - N/A   Clear
12:35 PM 55.4 °F - 39.2 °F 54% 30.24 in 10.0 mi South 6.9 mph - N/A   Clear
12:55 PM 55.4 °F - 39.2 °F 54% 30.23 in 10.0 mi South 4.6 mph - N/A   Clear
1:15 PM 57.2 °F - 37.4 °F 48% 30.22 in 10.0 mi South 6.9 mph - N/A   Clear
1:35 PM 55.4 °F - 39.2 °F 54% 30.22 in 10.0 mi SSW 5.8 mph - N/A   Clear
1:55 PM 55.4 °F - 39.2 °F 54% 30.21 in 10.0 mi South 5.8 mph - N/A   Clear
2:15 PM 57.2 °F - 39.2 °F 51% 30.20 in 10.0 mi South 5.8 mph - N/A   Clear
2:35 PM 55.4 °F - 39.2 °F 54% 30.18 in 10.0 mi South 3.5 mph - N/A   Clear
2:55 PM 55.4 °F - 39.2 °F 54% 30.17 in 10.0 mi Calm Calm - N/A   Clear
3:15 PM 55.4 °F - 41.0 °F 58% 30.16 in 10.0 mi South 4.6 mph - N/A   Clear
3:35 PM 55.4 °F - 41.0 °F 58% 30.15 in 10.0 mi South 4.6 mph - N/A   Clear
3:55 PM 53.6 °F - 42.8 °F 67% 30.15 in 10.0 mi South 3.5 mph - N/A   Clear
4:15 PM 53.6 °F - 42.8 °F 67% 30.14 in 10.0 mi SSE 3.5 mph - N/A   Clear
4:35 PM 53.6 °F - 42.8 °F 67% 30.13 in 10.0 mi ESE 3.5 mph - N/A   Clear
4:55 PM 51.8 °F - 42.8 °F 71% 30.13 in 10.0 mi ESE 3.5 mph - N/A   Clear
5:15 PM 51.8 °F - 41.0 °F 67% 30.12 in 10.0 mi ESE 5.8 mph - N/A   Clear
5:35 PM 50.0 °F - 42.8 °F 76% 30.12 in 10.0 mi ESE 3.5 mph - N/A   Clear
5:55 PM 50.0 °F - 42.8 °F 76% 30.12 in 10.0 mi SE 4.6 mph - N/A   Clear
6:15 PM 51.8 °F - 41.0 °F 67% 30.11 in 10.0 mi SE 4.6 mph - N/A   Clear
6:35 PM 50.0 °F - 42.8 °F 76% 30.12 in 10.0 mi Calm Calm - N/A   Clear
6:55 PM 50.0 °F - 42.8 °F 76% 30.11 in 10.0 mi Calm Calm - N/A   Clear
7:15 PM 50.0 °F - 42.8 °F 76% 30.10 in 10.0 mi ESE 4.6 mph - N/A   Clear
7:35 PM 51.8 °F - 41.0 °F 67% 30.11 in 10.0 mi ESE 4.6 mph - N/A   Clear
7:55 PM 51.8 °F - 41.0 °F 67% 30.11 in 10.0 mi SE 5.8 mph - N/A   Clear
8:15 PM 51.8 °F - 42.8 °F 71% 30.13 in 10.0 mi South 3.5 mph - N/A   Scattered Clouds
8:55 PM 50.0 °F - 42.8 °F 76% 30.15 in 10.0 mi SW 5.8 mph - N/A   Mostly Cloudy
9:15 PM 51.8 °F - 42.8 °F 71% 30.15 in 10.0 mi South 4.6 mph - N/A Rain Light Rain
9:35 PM 50.0 °F - 44.6 °F 82% 30.15 in 10.0 mi SSW 4.6 mph - N/A Rain Light Rain
9:55 PM 50.0 °F - 44.6 °F 82% 30.14 in 10.0 mi Calm Calm - 0.02 in Rain Light Rain
10:15 PM 50.0 °F - 44.6 °F 82% 30.11 in 7.0 mi SE 6.9 mph - 0.02 in Rain Light Rain
10:35 PM 50.0 °F - 44.6 °F 82% 30.08 in 10.0 mi ESE 11.5 mph - 0.03 in Rain Light Rain
10:55 PM 50.0 °F - 46.4 °F 87% 30.09 in 10.0 mi SE 10.4 mph - 0.03 in   Scattered Clouds
11:15 PM 50.0 °F - 46.4 °F 87% 30.09 in 7.0 mi East 5.8 mph - 0.02 in Rain Heavy Rain
11:35 PM 50.0 °F - 46.4 °F 87% 30.09 in 10.0 mi ESE 5.8 mph - 0.03 in Rain Rain
11:55 PM 50.0 °F - 46.4 °F 87% 30.07 in 10.0 mi ESE 9.2 mph - 0.03 in   Mostly Cloudy